Location: Tr�vern
(48.0333°N, 4.6000°W)
Time: 19:13:11
(UTC+00:00)

YAOGAN 11 - Pass Details

Date: 14 July 2020
Orbit: 614 x 668 km, 98.3° (Epoch: 11 August)

Event Time Altitude Azimuth Distance (km) Brightness Sun altitude
Exits shadow 00:44:19 46° 215° (SW) 864 4.4 -20.2°
Maximum altitude 00:45:14 56° 259° (W) 768 4.4 -20.2°
Drops below altitude 10° 00:49:40 10° 338° (NNW) 2,065 7.6 -20.1°
Sets 00:51:57 0° 343° (NNW) 2,989 8.7 -20.1°
